EW5742 Weather Reports


Display with metric or nautical units.
time (UTC)temp
F
wind
direction
speed
MPH
gust
MPH
rain 1hr
in
rain 24hr
in
rain mn
in
humidity
%
barometer
mb
20260509060050 56 245 0.0 0.0 0.00 0.00 0.00 92 1014.6
20260509054642 56 245 0.0 0.0 0.00 0.00 0.00 92 1014.7
20260509053024 56 245 0.0 0.0 0.00 0.00 0.00 92 1015.0
20260509051526 56 245 0.0 0.0 0.00 0.00 0.00 92 1015.1
20260509050010 55 245 0.0 0.0 0.00 0.00 0.00 92 1015.1
20260509044513 55 245 0.0 0.0 0.00 0.00 0.00 91 1015.1
20260509043051 55 245 0.0 0.0 0.00 0.00 0.00 91 1015.2
20260509041544 55 245 0.0 0.0 0.00 0.00 0.00 91 1015.4
20260509040042 55 245 0.0 0.0 0.00 0.10 0.00 91 1015.6
20260509034541 56 245 0.0 0.0 0.00 0.10 0.00 90 1015.7
20260509033027 56 245 0.0 1.0 0.00 0.10 0.00 90 1015.9
20260509031528 56 245 0.0 0.0 0.00 0.10 0.00 89 1016.0
20260509030051 56 245 0.0 1.0 0.00 0.10 0.00 89 1015.8
20260509024542 56 178 0.0 0.0 0.00 0.10 0.00 89 1015.8
20260509023033 56 178 0.0 0.0 0.00 0.10 0.00 88 1016.1
20260509021535 56 178 0.0 0.0 0.00 0.10 0.00 88 1016.1
20260509020033 57 178 0.0 0.0 0.00 0.10 0.00 87 1015.9
20260509014534 57 178 0.0 0.0 0.00 0.10 0.00 87 1015.7
20260509013015 57 178 0.0 0.0 0.00 0.10 0.00 86 1015.7
20260509011514 57 178 0.0 0.0 0.00 0.10 0.00 85 1015.5
20260509010117 58 179 0.0 0.0 0.00 0.10 0.00 83 1015.3
20260509004547 59 178 0.0 0.0 0.00 0.10 0.00 81 1015.3
20260509003110 60 178 0.0 0.0 0.00 0.10 0.00 80 1015.6
20260509001521 61 174 0.0 0.0 0.00 0.10 0.00 77 1015.5
20260509000019 62 140 0.0 0.0 0.00 0.10 0.00 75 1015.4
20260508234554 63 165 0.0 1.0 0.00 0.10 0.00 73 1015.3
20260508233052 64 128 1.0 3.0 0.00 0.10 0.00 71 1015.2
20260508231510 64 211 0.0 4.0 0.00 0.10 0.00 68 1015.1
20260508230017 65 93 0.0 3.0 0.00 0.10 0.00 63 1015.0
20260508224533 66 177 1.0 6.0 0.00 0.10 0.00 58 1015.0
20260508223031 66 131 1.0 7.0 0.00 0.10 0.00 57 1015.0
20260508221506 67 94 1.0 8.0 0.00 0.10 0.00 53 1014.8
20260508220007 68 108 1.0 6.0 0.00 0.10 0.00 52 1014.7
20260508214513 68 101 1.0 8.0 0.00 0.10 0.00 53 1014.8
20260508213003 68 136 4.0 8.0 0.00 0.10 0.00 49 1015.0
20260508211506 68 165 4.0 8.0 0.00 0.10 0.00 54 1015.0
20260508210008 69 121 3.0 11.0 0.00 0.10 0.00 57 1015.1
20260508203029 70 172 4.0 13.0 0.00 0.10 0.00 55 1014.9
20260508201600 70 162 5.0 12.0 0.00 0.10 0.00 52 1014.8
20260508201559 70 223 4.0 12.0 0.00 0.10 0.00 52 1014.8
20260508200026 70 162 3.0 12.0 0.00 0.10 0.00 51 1014.9
20260508194525 69 211 4.0 10.0 0.00 0.10 0.00 59 1015.1
20260508193024 70 115 2.0 9.0 0.00 0.10 0.00 51 1015.1
20260508191534 72 90 1.0 10.0 0.00 0.10 0.00 46 1015.4
20260508190034 71 128 3.0 7.0 0.00 0.12 0.00 46 1015.6
20260508184523 72 302 1.0 4.0 0.00 0.12 0.00 49 1015.7
20260508183022 72 324 1.0 7.0 0.00 0.12 0.00 48 1015.9
20260508181531 71 34 5.0 9.0 0.00 0.12 0.00 49 1015.8
20260508180006 72 10 2.0 5.0 0.00 0.28 0.00 52 1016.1
20260508174504 71 91 0.0 7.0 0.00 0.28 0.00 51 1016.0
20260508173002 70 39 2.0 6.0 0.00 0.28 0.00 51 1016.1
20260508171601 71 65 1.0 7.0 0.00 0.28 0.00 53 1016.4
20260508170044 70 309 2.0 9.0 0.00 0.37 0.00 52 1016.5
20260508164545 70 135 0.0 6.0 0.00 0.37 0.00 52 1016.5
20260508163033 69 33 3.0 9.0 0.00 0.37 0.00 51 1016.6
20260508161529 68 301 1.0 10.0 0.00 0.37 0.00 57 1016.6
20260508160014 69 42 2.0 6.0 0.00 0.38 0.00 60 1016.7
20260508154505 67 252 1.0 6.0 0.00 0.38 0.00 65 1016.9
20260508153053 66 20 2.0 9.0 0.00 0.38 0.00 68 1016.9
20260508151546 65 294 1.0 6.0 0.00 0.38 0.00 71 1016.8
20260508150043 64 306 2.0 10.0 0.00 0.38 0.00 71 1016.7
20260508144544 64 3 2.0 8.0 0.00 0.38 0.00 71 1016.7
20260508143024 62 65 3.0 7.0 0.00 0.38 0.00 74 1016.6
20260508141517 61 344 3.0 9.0 0.00 0.38 0.00 75 1016.6
20260508140018 60 15 2.0 8.0 0.00 0.39 0.00 79 1016.5
20260508134519 60 27 1.0 6.0 0.00 0.39 0.00 80 1016.4
20260508133026 59 24 1.0 8.0 0.00 0.39 0.00 82 1016.4
20260508131519 59 43 2.0 6.0 0.00 0.39 0.00 81 1016.5
20260508130022 57 297 1.0 7.0 0.00 0.42 0.00 85 1016.3
20260508124531 56 20 0.0 6.0 0.00 0.42 0.00 87 1016.3
20260508123046 56 349 2.0 5.0 0.00 0.42 0.00 87 1016.1
20260508123044 55 8 1.0 5.0 0.00 0.42 0.00 88 1016.1
20260508121602 54 23 1.0 3.0 0.00 0.42 0.00 90 1016.0
20260508121506 54 335 0.0 3.0 0.00 0.42 0.00 90 1016.0
20260508120057 54 283 2.0 5.0 0.00 0.77 0.00 89 1015.8
20260508114534 54 347 1.0 5.0 0.00 0.77 0.00 91 1015.6
20260508113045 53 29 1.0 5.0 0.00 0.77 0.00 92 1015.5
20260508111504 53 33 1.0 4.0 0.00 0.77 0.00 93 1015.2
20260508110006 52 300 0.0 4.0 0.00 0.89 0.00 93 1015.4
20260508104539 51 297 1.0 6.0 0.00 0.89 0.00 93 1014.8
20260508103037 51 319 2.0 7.0 0.00 0.89 0.00 94 1014.6
20260508101513 51 320 1.0 8.0 0.00 0.89 0.00 94 1014.3
20260508100008 51 326 2.0 6.0 0.00 0.89 0.00 94 1014.1
20260508094524 51 13 2.0 6.0 0.00 0.89 0.00 94 1014.0
20260508093021 50 306 0.0 2.0 0.00 0.89 0.00 94 1013.5
20260508091534 50 318 0.0 2.0 0.00 0.89 0.00 94 1013.5
20260508090030 50 314 0.0 2.0 0.00 0.89 0.00 94 1013.2
20260508084512 50 315 0.0 2.0 0.00 0.89 0.00 94 1013.0
20260508083124 50 312 0.0 3.0 0.00 0.89 0.00 94 1012.8
20260508081534 51 338 0.0 3.0 0.00 0.89 0.00 93 1012.5
20260508080038 51 12 1.0 4.0 0.00 0.93 0.00 93 1012.3
20260508073013 51 297 0.0 7.0 0.00 0.93 0.00 93 1012.3
20260508071522 51 323 1.0 4.0 0.00 0.93 0.00 93 1012.6
20260508070032 52 314 0.0 4.0 0.00 1.14 0.00 93 1012.4
20260508064546 52 324 0.0 1.0 0.00 1.14 0.00 93 1012.3
20260508063027 52 268 0.0 1.0 0.00 1.14 0.00 93 1012.1